DW2851 Staxton UK current weather conditions

sailwx.info

Wind from 209 at 2 knots gusting 10

Air temperature 13.9° C
Dewpoint 11.4° C

Last reported at 2019-Jun-16 23:01 UTC.
Time now 2019-Jun-17 17:31 UTC

Location: N 54°12' W 000°26'.
View on Google Maps.

See reports from other nearby stations

  
Tides and Currents Weather Stations Pressure Air Temp Water Temp Dewpoint Dewpoint Depression Visibility Wind Speed Wind Dir Waves Ship Positions
date/time (UTC)wind fromknots sea level pressurealtimeterstation pressurevisibilityair tempwater tempwave heightnotes
2019-Jun-16 23:01 209 2 gusting 10 13.9
2019-Jun-16 22:55 211 3 gusting 7 13.9
2019-Jun-16 22:50 228 3 gusting 10 13.9
2019-Jun-16 22:46 261 2 gusting 9 13.9
2019-Jun-16 22:40 144 1 gusting 10 13.9
2019-Jun-16 22:35 194 4 gusting 10 13.9
2019-Jun-16 22:30 251 6 gusting 10 13.9
2019-Jun-16 22:25 192 4 gusting 9 14.4
2019-Jun-16 22:20 201 3 gusting 7 14.4
2019-Jun-16 22:15 182 3 gusting 7 14.4
2019-Jun-16 22:10 174 3 gusting 7 14.4
2019-Jun-16 22:05 184 2 gusting 9 14.4
2019-Jun-16 22:00 221 5 gusting 10 14.4
2019-Jun-16 21:55 223 4 gusting 9 14.4
2019-Jun-16 21:50 199 2 gusting 9 14.4
2019-Jun-16 21:45 180 3 gusting 9 14.4
2019-Jun-16 21:40 227 1 gusting 7 14.4
2019-Jun-16 21:35 235 4 gusting 7 14.4
2019-Jun-16 21:31 205 1 gusting 6 15.0
2019-Jun-16 21:25 212 1 gusting 8 15.0
2019-Jun-16 21:20 182 4 gusting 8 15.0
2019-Jun-16 21:15 155 4 gusting 7 15.0
2019-Jun-16 21:10 216 4 gusting 7 15.0
2019-Jun-16 21:05 224 3 gusting 6 15.0
2019-Jun-16 20:55 177 0 gusting 4 15.0
2019-Jun-16 20:50 171 0 gusting 5 15.0
2019-Jun-16 20:40 213 2 gusting 6 15.0
2019-Jun-16 20:35 196 2 gusting 6 15.0
2019-Jun-16 20:30 202 2 gusting 7 15.0
2019-Jun-16 20:25 198 2 gusting 7 15.0
2019-Jun-16 20:20 208 3 gusting 8 15.0
2019-Jun-16 20:15 215 5 gusting 8 15.6
2019-Jun-16 20:11 180 4 gusting 6 15.6
2019-Jun-16 20:05 197 2 gusting 5 15.6
2019-Jun-16 20:00 186 2 gusting 6 15.6
2019-Jun-16 19:55 198 3 gusting 6 15.6
2019-Jun-16 19:50 211 1 gusting 7 15.6
2019-Jun-16 19:45 192 2 gusting 7 15.6
2019-Jun-16 19:40 177 4 gusting 7 15.6
2019-Jun-16 19:35 186 3 gusting 7 15.6
2019-Jun-16 19:30 166 3 gusting 7 15.6
2019-Jun-16 19:25 204 3 gusting 6 15.6
2019-Jun-16 19:20 186 2 gusting 5 15.6
2019-Jun-16 19:15 192 1 gusting 5 15.6
2019-Jun-16 19:10 216 16.1
2019-Jun-16 19:05 182 2 gusting 6 16.1
2019-Jun-16 19:00 196 2 gusting 5 16.1
2019-Jun-16 18:55 172 3 gusting 6 16.1
2019-Jun-16 18:50 178 2 gusting 6 16.1
2019-Jun-16 18:46 177 1 gusting 6 16.1
2019-Jun-16 18:40 185 1 gusting 8 16.1
2019-Jun-16 18:35 188 4 gusting 8 16.1
2019-Jun-16 18:30 195 4 gusting 7 16.1
2019-Jun-16 18:25 207 4 gusting 8 16.1
2019-Jun-16 18:20 200 3 gusting 8 16.1
2019-Jun-16 18:15 203 4 gusting 8 16.1
2019-Jun-16 18:10 197 5 gusting 10 16.1
2019-Jun-16 18:05 175 5 gusting 11 16.1
2019-Jun-16 18:00 204 6 gusting 13 16.1
2019-Jun-16 17:55 203 5 gusting 9 16.1
2019-Jun-16 17:50 238 5 gusting 10 16.1
2019-Jun-16 17:46 215 6 gusting 11 16.1
2019-Jun-16 17:40 186 6 gusting 11 15.6
2019-Jun-16 17:35 204 6 gusting 9 15.6
2019-Jun-16 17:25 190 6 gusting 13 15.6
2019-Jun-16 17:20 193 7 gusting 13 15.6
2019-Jun-16 17:10 191 6 gusting 13 15.6
2019-Jun-16 17:05 205 6 gusting 13 15.0
2019-Jun-16 16:55 175 6 gusting 8 14.4
2019-Jun-16 16:50 198 4 gusting 9 14.4
2019-Jun-16 16:40 212 3 gusting 11 13.9
2019-Jun-16 16:35 184 3 gusting 11 13.9
2019-Jun-16 16:25 167 6 gusting 13 13.9
2019-Jun-16 16:20 205 6 gusting 10 14.4
2019-Jun-16 16:10 185 6 gusting 10 14.4
2019-Jun-16 16:05 221 5 gusting 10 14.4
2019-Jun-16 15:55 160 5 gusting 10 14.4
2019-Jun-16 15:50 211 5 gusting 10 15.0
2019-Jun-16 15:45 175 6 gusting 13 15.0
2019-Jun-16 15:40 192 6 gusting 13 15.6
2019-Jun-16 15:35 198 4 gusting 11 16.1
2019-Jun-16 15:30 223 5 gusting 11 17.2
2019-Jun-16 15:25 210 5 gusting 11 17.8
2019-Jun-16 15:20 232 5 gusting 13 18.3
2019-Jun-16 15:15 211 4 gusting 13 18.3
2019-Jun-16 15:10 232 4 gusting 13 18.3
2019-Jun-16 15:05 220 6 gusting 11 18.9
2019-Jun-16 14:55 223 3 gusting 9 18.9
2019-Jun-16 14:50 203 3 gusting 12 18.9
2019-Jun-16 14:45 217 6 gusting 12 18.9
2019-Jun-16 14:40 177 6 gusting 10 18.3
2019-Jun-16 14:35 238 6 gusting 11 17.8
2019-Jun-16 14:25 218 4 gusting 9 17.8
2019-Jun-16 14:20 197 5 gusting 9 17.8
2019-Jun-16 14:15 194 6 gusting 12 17.8
2019-Jun-16 14:10 236 4 gusting 12 18.3
2019-Jun-16 14:05 215 5 gusting 11 18.3
2019-Jun-16 13:56 207 6 gusting 11 18.3
2019-Jun-16 13:51 227 4 gusting 15 17.8
2019-Jun-16 13:46 204 4 gusting 15 17.2
2019-Jun-16 13:41 212 6 gusting 15 17.2
2019-Jun-16 13:35 232 5 gusting 12 17.2
2019-Jun-16 13:32 198 5 gusting 12 17.8
2019-Jun-16 13:25 223 5 gusting 12 17.8
2019-Jun-16 13:21 205 6 gusting 12 17.8
2019-Jun-16 13:16 207 6 gusting 13 18.3
2019-Jun-16 13:10 211 6 gusting 15 18.3
2019-Jun-16 13:05 210 6 gusting 15 18.3
2019-Jun-16 13:02 199 7 gusting 14 18.3
2019-Jun-16 12:55 210 6 gusting 14 18.3
2019-Jun-16 12:50 228 6 gusting 14 18.3
2019-Jun-16 12:47 194 7 gusting 13 17.8
2019-Jun-16 12:40 202 5 gusting 13 17.8
2019-Jun-16 12:35 244 5 gusting 13 17.8
2019-Jun-16 12:32 265 6 gusting 15 17.8
2019-Jun-16 12:25 184 6 gusting 15 17.8
2019-Jun-16 12:20 235 6 gusting 15 17.8
2019-Jun-16 12:16 219 8 gusting 19 17.8
2019-Jun-16 12:10 167 6 gusting 15 17.8
2019-Jun-16 12:05 181 6 gusting 13 17.8
2019-Jun-16 12:01 171 6 gusting 13 17.2
2019-Jun-16 11:55 124 5 gusting 13 17.8
2019-Jun-16 11:50 209 7 gusting 13 17.8
2019-Jun-16 11:46 196 6 gusting 14 17.2
2019-Jun-16 11:40 242 6 gusting 14 17.2
2019-Jun-16 11:35 237 6 gusting 13 17.8
2019-Jun-16 11:31 209 5 gusting 13 17.8
2019-Jun-16 11:25 221 6 gusting 13 17.2
2019-Jun-16 11:20 188 6 gusting 13 17.2
2019-Jun-16 11:17 184 7 gusting 13 17.2
2019-Jun-16 11:10 200 6 gusting 11 17.2
2019-Jun-16 11:05 182 6 gusting 12 17.2
2019-Jun-16 11:01 224 7 gusting 15 17.2
2019-Jun-16 10:55 159 6 gusting 13 17.2
2019-Jun-16 10:50 248 6 gusting 13 17.2
2019-Jun-16 10:46 188 5 gusting 16 16.7
2019-Jun-16 10:40 221 6 gusting 16 16.7
2019-Jun-16 10:35 209 6 gusting 13 17.2
2019-Jun-16 10:31 225 5 gusting 13 16.7
2019-Jun-16 10:25 188 5 gusting 14 16.7
2019-Jun-16 10:20 195 6 gusting 14 16.7
2019-Jun-16 10:16 225 6 gusting 13 16.7
2019-Jun-16 10:10 244 6 gusting 13 16.7
2019-Jun-16 10:05 235 6 gusting 14 16.7
2019-Jun-16 10:01 199 5 gusting 13 16.7
2019-Jun-16 09:55 239 6 gusting 13 16.7
2019-Jun-16 09:50 212 5 gusting 13 16.7
2019-Jun-16 09:46 244 5 gusting 9 16.7
2019-Jun-16 09:40 211 5 gusting 12 16.7
2019-Jun-16 09:35 239 6 gusting 12 16.7
2019-Jun-16 09:30 188 5 gusting 10 16.1
2019-Jun-16 09:25 235 4 gusting 10 15.6
2019-Jun-16 09:20 235 6 gusting 11 15.6
2019-Jun-16 09:16 208 6 gusting 11 16.1
2019-Jun-16 09:10 254 6 gusting 12 15.6
2019-Jun-16 09:05 209 6 gusting 15 16.1
2019-Jun-16 09:00 221 5 gusting 14 16.1
2019-Jun-16 08:55 168 6 gusting 14 16.1
2019-Jun-16 08:50 187 5 gusting 12 15.6
2019-Jun-16 08:45 195 5 gusting 12 15.6
2019-Jun-16 08:40 252 5 gusting 13 15.0
2019-Jun-16 08:35 222 6 gusting 11 15.0
2019-Jun-16 08:30 219 5 gusting 11 15.0
2019-Jun-16 08:25 229 6 gusting 10 15.0
2019-Jun-16 08:20 237 6 gusting 11 14.4
2019-Jun-16 08:15 190 6 gusting 13 14.4
2019-Jun-16 08:10 223 6 gusting 13 14.4
2019-Jun-16 08:05 227 6 gusting 10 14.4
2019-Jun-16 08:00 219 5 gusting 12 13.9
2019-Jun-16 07:55 210 4 gusting 12 13.9
2019-Jun-16 07:50 241 6 gusting 13 13.9
2019-Jun-16 07:40 195 6 gusting 14 13.3
2019-Jun-16 07:35 239 5 gusting 12 13.3
2019-Jun-16 07:30 215 6 gusting 12 13.3
2019-Jun-16 07:25 205 6 gusting 9 13.3
2019-Jun-16 07:20 229 4 gusting 11 13.3
2019-Jun-16 07:15 229 5 gusting 12 12.8
2019-Jun-16 07:10 215 4 gusting 12 12.8
2019-Jun-16 07:01 212 6 gusting 10 12.8
2019-Jun-16 06:55 198 6 gusting 9 12.2
2019-Jun-16 06:51 207 5 gusting 9 12.2
2019-Jun-16 06:46 193 5 gusting 13 12.2
2019-Jun-16 06:40 196 6 gusting 13 12.2
2019-Jun-16 06:35 194 6 gusting 13 11.7
2019-Jun-16 06:31 178 6 gusting 12 11.7
2019-Jun-16 06:25 186 6 gusting 14 11.7
2019-Jun-16 06:20 206 7 gusting 14 11.7
2019-Jun-16 06:17 194 6 gusting 12 11.1
2019-Jun-16 06:10 172 6 gusting 11 11.1
2019-Jun-16 06:05 191 6 gusting 11 11.1
2019-Jun-16 06:01 194 6 gusting 10 11.1
2019-Jun-16 05:55 192 6 gusting 13 11.1
2019-Jun-16 05:50 185 6 gusting 13 11.1
2019-Jun-16 05:46 165 6 gusting 9 10.6
2019-Jun-16 05:40 187 6 gusting 10 10.6
2019-Jun-16 05:35 186 4 gusting 7 10.6
2019-Jun-16 05:30 189 5 gusting 10 10.6
2019-Jun-16 05:25 190 5 gusting 10 10.6
2019-Jun-16 05:20 174 5 gusting 9 10.0
2019-Jun-16 05:15 184 4 gusting 9 10.0
2019-Jun-16 05:05 180 6 gusting 10 9.4
2019-Jun-16 05:00 206 5 gusting 11 9.4
2019-Jun-16 04:55 169 6 gusting 11 9.4
2019-Jun-16 04:50 192 6 gusting 11 9.4
2019-Jun-16 04:46 207 5 gusting 10 9.4
2019-Jun-16 04:40 202 6 gusting 10 9.4
2019-Jun-16 04:35 192 6 gusting 8 9.4
2019-Jun-16 04:30 190 5 gusting 9 9.4
2019-Jun-16 04:25 170 6 gusting 9 9.4
2019-Jun-16 04:20 186 5 gusting 9 9.4
2019-Jun-16 04:10 202 3 gusting 6 8.9
2019-Jun-16 04:00 192 1 gusting 7 8.9
2019-Jun-16 03:55 197 3 gusting 7 8.9
2019-Jun-16 03:50 166 1 gusting 6 8.9
2019-Jun-16 03:40 229 0 gusting 2 8.9
2019-Jun-16 03:35 229 0 gusting 3 8.9
2019-Jun-16 03:30 208 0 gusting 4 8.9
2019-Jun-16 03:25 209 0 gusting 4 8.9
2019-Jun-16 03:20 203 0 gusting 5 8.9
2019-Jun-16 03:15 191 2 gusting 5 8.9
2019-Jun-16 03:10 203 8.9
2019-Jun-16 03:05 203 8.9
2019-Jun-16 03:00 202 0 gusting 3 8.9
2019-Jun-16 02:55 193 9.4
2019-Jun-16 02:50 193 0 gusting 5 9.4
2019-Jun-16 02:40 202 1 gusting 5 8.9
2019-Jun-16 02:35 225 8.9
2019-Jun-16 02:30 225 8.9
2019-Jun-16 02:20 225 9.4
2019-Jun-16 02:16 225 9.4
2019-Jun-16 02:11 225 9.4
2019-Jun-16 02:05 225 9.4
2019-Jun-16 02:02 225 9.4
2019-Jun-16 01:55 225 10.0
2019-Jun-16 01:51 225 10.0
2019-Jun-16 01:47 225 10.0
2019-Jun-16 01:41 225 0 gusting 7 10.0
2019-Jun-16 01:35 196 2 gusting 7 10.0
2019-Jun-16 01:32 227 1 gusting 3 9.4
2019-Jun-16 01:25 228 9.4
2019-Jun-16 01:20 228 9.4
2019-Jun-16 01:16 228 1 gusting 5 9.4
2019-Jun-16 01:11 227 1 gusting 5 9.4
2019-Jun-16 01:06 223 0 gusting 3 9.4
2019-Jun-16 01:01 223 0 gusting 3 9.4
2019-Jun-16 00:55 223 0 gusting 3 10.0
2019-Jun-16 00:50 223 0 gusting 4 10.0
2019-Jun-16 00:46 225 0 gusting 6 10.0
2019-Jun-16 00:40 223 3 gusting 7 9.4
2019-Jun-16 00:35 194 4 gusting 7 9.4
2019-Jun-16 00:31 202 2 gusting 6 9.4
2019-Jun-16 00:25 207 2 gusting 5 9.4
2019-Jun-16 00:20 205 0 gusting 4 9.4
2019-Jun-16 00:17 225 0 gusting 5 9.4
2019-Jun-16 00:10 223 2 gusting 5 9.4
2019-Jun-16 00:05 221 0 gusting 4 9.4
2019-Jun-16 00:02 219 10.0
2019-Jun-15 23:55 219 10.0
2019-Jun-15 23:50 215 10.0
2019-Jun-15 23:46 184 3 gusting 6 10.0
2019-Jun-15 23:40 170 0 gusting 4 9.4
2019-Jun-15 23:32 189 0 gusting 3 9.4
2019-Jun-15 23:25 180 1 gusting 6 9.4
2019-Jun-15 23:20 179 3 gusting 6 9.4
2019-Jun-15 23:15 181 2 gusting 4 9.4
2019-Jun-15 23:10 221 9.4
2019-Jun-15 23:05 227 9.4
2019-Jun-15 23:01 227 9.4
2019-Jun-15 22:55 227 9.4
2019-Jun-15 22:50 227 9.4
2019-Jun-15 22:46 227 9.4
2019-Jun-15 22:40 229 1 gusting 2 9.4
2019-Jun-15 22:35 229 0 gusting 2 9.4
2019-Jun-15 22:31 229 0 gusting 2 10.0
2019-Jun-15 22:25 229 10.0
2019-Jun-15 22:20 229 10.0
2019-Jun-15 22:16 229 10.0
2019-Jun-15 22:10 229 10.6
2019-Jun-15 22:05 229 10.6
2019-Jun-15 22:01 229 1 gusting 2 10.6
2019-Jun-15 21:55 229 11.1
2019-Jun-15 21:50 229 11.1
2019-Jun-15 21:45 229 11.1
2019-Jun-15 21:35 228 11.1
2019-Jun-15 21:31 221 2 gusting 6 11.1
2019-Jun-15 21:25 211 2 gusting 6 11.1
2019-Jun-15 21:20 239 3 gusting 7 11.1
2019-Jun-15 21:15 211 2 gusting 7 11.1
2019-Jun-15 21:10 224 3 gusting 7 11.7
2019-Jun-15 21:05 229 3 gusting 6 11.7
2019-Jun-15 21:01 205 2 gusting 7 11.7
2019-Jun-15 20:55 236 2 gusting 6 11.7
2019-Jun-15 20:50 233 2 gusting 6 11.7
2019-Jun-15 20:47 242 0 gusting 6 11.7
2019-Jun-15 20:40 241 3 gusting 9 11.7
2019-Jun-15 20:35 196 3 gusting 9 11.7
2019-Jun-15 20:30 196 5 gusting 9 11.7
2019-Jun-15 20:25 171 5 gusting 9 11.1
2019-Jun-15 20:20 180 5 gusting 8 11.1
2019-Jun-15 20:16 165 4 gusting 6 11.7
2019-Jun-15 20:10 175 4 gusting 6 11.7
2019-Jun-15 20:05 201 2 gusting 5 11.7
2019-Jun-15 20:00 212 1 gusting 4 11.7
2019-Jun-15 19:55 213 1 gusting 4 11.7
2019-Jun-15 19:50 224 1 gusting 5 11.7
2019-Jun-15 19:40 228 1 gusting 3 12.2
2019-Jun-15 19:35 228 1 gusting 3 12.2
2019-Jun-15 19:31 234 12.2
2019-Jun-15 19:25 234 12.2
2019-Jun-15 19:20 234 12.2
2019-Jun-15 19:15 234 0 gusting 1 12.2
2019-Jun-15 19:10 234 12.2
2019-Jun-15 19:05 234 12.2
2019-Jun-15 19:00 234 12.8
2019-Jun-15 18:55 234 12.8
2019-Jun-15 18:50 234 12.8
2019-Jun-15 18:45 234 12.8
2019-Jun-15 18:40 234 12.8
2019-Jun-15 18:35 234 12.8
2019-Jun-15 18:30 234 12.8
2019-Jun-15 18:25 234 1 gusting 6 12.8
2019-Jun-15 18:20 232 0 gusting 5 12.8
2019-Jun-15 18:15 244 0 gusting 4 13.3
2019-Jun-15 18:10 236 0 gusting 6 13.3
2019-Jun-15 18:05 228 1 gusting 9 13.9
2019-Jun-15 18:00 238 2 gusting 10 13.9
2019-Jun-15 17:55 247 3 gusting 10 14.4
2019-Jun-15 17:50 210 0 gusting 3 14.4
2019-Jun-15 17:45 210 14.4
2019-Jun-15 17:40 210 14.4
2019-Jun-15 17:35 210 0 gusting 3 14.4
2019-Jun-15 17:31 209 13.9
2019-Jun-15 17:25 214 0 gusting 4 13.9
2019-Jun-15 17:20 167 13.9
2019-Jun-15 17:15 186 13.9
2019-Jun-15 17:10 115 1 gusting 9 13.9
2019-Jun-15 17:05 121 1 gusting 10 13.9
2019-Jun-15 17:00 108 1 gusting 5 14.4